Glen Ullin Rgnl, Glen Ullin,, ND

12:01 AM MDT on August 21, 2017 (GMT -0600)
Glen Ullin Rgnl, Glen Ullin,

Weather History for KD57 - April, 2014

Change the Weather History Date:

Thursday, April 3, 2014

  Actual Average (KDIK) Record (KDIK)
Temperature  
Mean Temperature 28 °F -  
Max Temperature 32 °F 46 °F 74 °F (1988)
Min Temperature 24 °F 24 °F -4 °F (1954)
Degree Days  
Heating Degree Days 37    
Moisture  
Dew Point 24 °F    
Average Humidity 83    
Maximum Humidity 100    
Minimum Humidity 69    
Precipitation  
Precipitation 0.00 in - - ()
Sea Level Pressure  
Sea Level Pressure 29.98 in    
Wind  
Wind Speed 7 mph (North)    
Max Wind Speed 17 mph    
Max Gust Speed 21 mph    
Visibility 7 miles    
Events      
Averages and records for this station are not official NWS values.
T = Trace of Precipitation, MM = Missing Value Source: NWS Daily Summary

Daily Weather History Graph

Daily Weather History Graph

Search for Another Location

Airport or City:

Trip Planner

Search our weather history database for the weather conditions in past years. The results will help you decide how hot, cold, wet, or windy it might be!

Date:

Astronomy

Apr. 03, 2014 Rise Set
Actual Time 6:22 AM MDT 7:19 PM MDT
Civil Twilight 5:51 AM MDT 7:50 PM MDT
Nautical Twilight 5:15 AM MDT 8:27 PM MDT
Astronomical Twilight 4:36 AM MDT 9:06 PM MDT
Moon 8:41 AM MDT (4/3) 11:54 PM MDT (4/3)
Length of Visible Light 13h 58m
Length of Day
12h 56m
Waxing Crescent, 18% of the Moon is Illuminated
Apr 3
Waxing Crescent
Apr 7
First Quarter
Apr 15
Full
Apr 22
Last Quarter
Apr 29
New

Hourly Weather History & Observations

Time (MDT) Temp. Windchill Dew Point Humidity Pressure Visibility Wind Dir Wind Speed Gust Speed Precip Events Conditions
12:15 AM 24.8 °F 15.3 °F 21.2 °F 86% 29.96 in 10.0 mi East 9.2 mph - N/A   Overcast
12:35 AM 24.8 °F 16.9 °F 21.2 °F 86% 29.96 in 10.0 mi ESE 6.9 mph - N/A   Overcast
12:55 AM 24.8 °F 16.9 °F 21.2 °F 86% 29.96 in 4.0 mi ESE 6.9 mph - N/A   Overcast
1:15 AM 24.8 °F 16.1 °F 23.0 °F 93% 29.95 in 2.5 mi East 8.1 mph - N/A   Overcast
1:35 AM 24.8 °F 16.9 °F 23.0 °F 93% 29.94 in 3.0 mi East 6.9 mph - N/A   Overcast
1:55 AM 24.8 °F 16.9 °F 23.0 °F 93% 29.94 in 5.0 mi ESE 6.9 mph - N/A   Overcast
2:15 AM 24.8 °F 16.9 °F 23.0 °F 93% 29.93 in 7.0 mi East 6.9 mph - N/A   Overcast
2:35 AM 24.8 °F 16.9 °F 23.0 °F 93% 29.93 in 3.0 mi East 6.9 mph - N/A   Overcast
3:15 AM 24.8 °F 19.1 °F 23.0 °F 93% 29.93 in 4.0 mi ESE 4.6 mph - N/A   Overcast
3:35 AM 24.8 °F 16.1 °F 23.0 °F 93% 29.93 in 6.0 mi ESE 8.1 mph - N/A   Overcast
3:55 AM 24.8 °F 17.9 °F 23.0 °F 93% 29.93 in 6.0 mi SE 5.8 mph - N/A   Overcast
4:15 AM 24.8 °F 17.9 °F 23.0 °F 93% 29.92 in 6.0 mi ESE 5.8 mph - N/A   Overcast
4:35 AM 26.6 °F 21.2 °F 23.0 °F 86% 29.92 in 5.0 mi SE 4.6 mph - N/A   Overcast
4:55 AM 24.8 °F 17.9 °F 23.0 °F 93% 29.91 in 4.0 mi SE 5.8 mph - N/A   Overcast
5:15 AM 24.8 °F - 23.0 °F 93% 29.91 in 5.0 mi Calm Calm - N/A   Overcast
5:35 AM 24.8 °F - 23.0 °F 93% 29.91 in 5.0 mi Calm Calm - N/A   Overcast
5:55 AM 24.8 °F - 23.0 °F 93% 29.91 in 4.0 mi Calm Calm - N/A   Overcast
6:15 AM 24.8 °F - 24.8 °F 100% 29.92 in 2.0 mi Calm Calm - N/A   Overcast
6:35 AM 26.6 °F - 24.8 °F 93% 29.93 in 0.8 mi Calm Calm - N/A   Overcast
6:55 AM 26.6 °F - 24.8 °F 93% 29.93 in 0.5 mi Calm Calm - N/A   Overcast
7:15 AM 26.6 °F - 24.8 °F 93% 29.94 in 0.5 mi Calm Calm - N/A   Overcast
7:35 AM 26.6 °F - 24.8 °F 93% 29.95 in 0.8 mi Calm Calm - N/A   Overcast
7:55 AM 26.6 °F - 24.8 °F 93% 29.95 in 1.5 mi Calm Calm - N/A   Overcast
8:15 AM 26.6 °F - 24.8 °F 93% 29.95 in 2.0 mi Calm Calm - N/A   Overcast
8:35 AM 26.6 °F - 24.8 °F 93% 29.95 in 2.0 mi Calm Calm - N/A   Overcast
8:55 AM 26.6 °F - 24.8 °F 93% 29.95 in 2.5 mi Calm Calm - N/A   Overcast
9:15 AM 28.4 °F - 24.8 °F 86% 29.95 in 2.5 mi Calm Calm - N/A   Overcast
9:35 AM 28.4 °F 24.6 °F 24.8 °F 86% 29.96 in 3.0 mi West 3.5 mph - N/A   Overcast
9:55 AM 28.4 °F 22.2 °F 24.8 °F 86% 29.96 in 4.0 mi WNW 5.8 mph - N/A   Mostly Cloudy
10:15 AM 30.2 °F 24.3 °F 26.6 °F 86% 29.96 in 4.0 mi NW 5.8 mph - N/A   Mostly Cloudy
10:35 AM 30.2 °F 20.2 °F 24.8 °F 80% 29.96 in 9.0 mi NW 12.7 mph - N/A   Mostly Cloudy
10:55 AM 30.2 °F 20.2 °F 24.8 °F 80% 29.97 in 10.0 mi NW 12.7 mph - N/A   Overcast
11:15 AM 30.2 °F 20.2 °F 24.8 °F 80% 29.97 in 10.0 mi NW 12.7 mph - N/A   Overcast
11:35 AM 30.2 °F 19.3 °F 24.8 °F 80% 29.97 in 10.0 mi NW 15.0 mph - N/A   Overcast
11:55 AM 30.2 °F 19.3 °F 24.8 °F 80% 29.98 in 10.0 mi NW 15.0 mph - N/A   Overcast
12:15 PM 30.2 °F 19.8 °F 23.0 °F 75% 29.98 in 10.0 mi NW 13.8 mph - N/A   Overcast
12:35 PM 30.2 °F 18.9 °F 23.0 °F 75% 29.98 in 10.0 mi NW 16.1 mph - N/A   Overcast
12:55 PM 30.2 °F 18.9 °F 23.0 °F 75% 29.99 in 10.0 mi NW 16.1 mph - N/A   Overcast
1:15 PM 30.2 °F 19.3 °F 23.0 °F 75% 29.99 in 10.0 mi NW 15.0 mph - N/A   Overcast
1:35 PM 30.2 °F 19.8 °F 23.0 °F 75% 30.00 in 10.0 mi NNW 13.8 mph - N/A   Overcast
1:55 PM 30.2 °F 19.3 °F 23.0 °F 75% 29.99 in 10.0 mi NNW 15.0 mph - N/A   Overcast
2:15 PM 30.2 °F 19.3 °F 23.0 °F 75% 29.99 in 10.0 mi NNW 15.0 mph - N/A   Overcast
2:35 PM 32.0 °F 22.1 °F 23.0 °F 69% 29.99 in 10.0 mi NW 13.8 mph - N/A   Overcast
2:55 PM 32.0 °F 20.8 °F 23.0 °F 69% 29.99 in 10.0 mi NW 17.3 mph - N/A   Overcast
3:15 PM 32.0 °F 21.2 °F 23.0 °F 69% 29.99 in 10.0 mi NW 16.1 mph - N/A   Overcast
3:35 PM 32.0 °F - 23.0 °F 69% 30.00 in 10.0 mi North - - N/A   Overcast
3:55 PM 32.0 °F 20.8 °F 23.0 °F 69% 30.00 in 10.0 mi NW 17.3 mph - N/A   Overcast
4:15 PM 32.0 °F 21.6 °F 24.8 °F 75% 30.00 in 10.0 mi NW 15.0 mph 20.7 mph N/A   Overcast
4:35 PM 32.0 °F 21.6 °F 23.0 °F 69% 30.01 in 10.0 mi NNW 15.0 mph 20.7 mph N/A   Overcast
4:55 PM 32.0 °F 21.6 °F 24.8 °F 75% 30.01 in 10.0 mi NNW 15.0 mph - N/A   Overcast
5:15 PM 32.0 °F 22.5 °F 24.8 °F 75% 30.01 in 10.0 mi NNW 12.7 mph - N/A   Overcast
5:35 PM 32.0 °F 23.0 °F 24.8 °F 75% 30.01 in 10.0 mi NNW 11.5 mph - N/A   Overcast
5:55 PM 32.0 °F 23.6 °F 24.8 °F 75% 30.02 in 10.0 mi NNW 10.4 mph - N/A   Overcast
6:15 PM 32.0 °F 24.8 °F 24.8 °F 75% 30.02 in 10.0 mi NNW 8.1 mph - N/A   Mostly Cloudy
6:35 PM 30.2 °F 22.6 °F 23.0 °F 75% 30.02 in 10.0 mi NNW 8.1 mph - N/A   Clear
6:55 PM 32.0 °F 25.6 °F 24.8 °F 75% 30.03 in 10.0 mi NNW 6.9 mph - N/A   Mostly Cloudy
7:15 PM 32.0 °F 27.5 °F 24.8 °F 75% 30.03 in 10.0 mi NW 4.6 mph - N/A   Overcast
7:35 PM 32.0 °F 26.4 °F 26.6 °F 80% 30.03 in 10.0 mi NW 5.8 mph - N/A   Overcast
7:55 PM 32.0 °F 26.4 °F 26.6 °F 80% 30.03 in 10.0 mi NW 5.8 mph - N/A   Overcast
8:15 PM 32.0 °F 26.4 °F 26.6 °F 80% 30.04 in 10.0 mi North 5.8 mph - N/A   Overcast
8:35 PM 32.0 °F 26.4 °F 26.6 °F 80% 30.04 in 10.0 mi North 5.8 mph - N/A   Overcast
9:55 PM 32.0 °F 24.2 °F 26.6 °F 80% 30.05 in 10.0 mi NNE 9.2 mph - N/A   Overcast
10:15 PM 32.0 °F 24.8 °F 26.6 °F 80% 30.06 in 10.0 mi NNE 8.1 mph - N/A   Overcast
10:35 PM 30.2 °F 22.6 °F 26.6 °F 86% 30.06 in 10.0 mi NNE 8.1 mph - N/A   Overcast
10:55 PM 30.2 °F 22.6 °F 24.8 °F 80% 30.06 in 10.0 mi NNE 8.1 mph - N/A   Overcast
11:15 PM 30.2 °F 24.3 °F 24.8 °F 80% 30.06 in 10.0 mi North 5.8 mph - N/A   Overcast
11:35 PM 30.2 °F 22.6 °F 24.8 °F 80% 30.06 in 10.0 mi NNE 8.1 mph - N/A   Overcast
11:55 PM 30.2 °F 24.3 °F 24.8 °F 80% 30.06 in 10.0 mi NNE 5.8 mph - N/A   Overcast